Regional Weather Roundup
Issued by NWS

Home | Current Version | Previous Version | Graphics & Text | Print | Product List | Glossary On
Versions: 1 2 3 4 5 6 7 8 9 10 11 12 13 14 15 16 17 18 19 20 21 22 23 24 25 26 27 28 29 30 31 32 33 34 35 36 37 38 39 40 41 42 43 44 45 46 47 48 49 50
000
ASUS45 KABQ 271701
RWRNM
NEW MEXICO REGIONAL WEATHER ROUNDUP
NATIONAL WEATHER SERVICE ALBUQUERQUE NM
1000 AM MST MON FEB 27 2017

NOTE: "FAIR" MEANS FEW OR NO CLOUDS BELOW 12,000 FEET AGL WITH NO
       SIGNIFICANT WEATHER OR OBSTRUCTIONS TO VISION.

      THIS PRODUCT IS RELEASED AS TWO VERSIONS.  ONE VERSION NEAR
      THE TOP OF THE HOUR CONTAINING PRELIMINARY DATA FROM ALBUQUERQUE
      AND OTHER STATIONS.  A FINAL VERSION WITH ADDITIONAL DATA IS
      ISSUED ABOUT 10 MINUTES AFTER THE HOUR.

NMZ501-503-504-510>518-271800-
NORTHWEST PLATEAU/NORTHCENTRAL MOUNTAINS

CITY           SKY/WX    TMP DP  RH WIND       PRES   REMARKS
FARMINGTON     CLOUDY    44  21  40 SW17      29.86F
LOS ALAMOS     FAIR      35  22  59 S7        29.93S WCI  29
SANTA FE       FAIR      42  23  46 SW14      29.94S
TAOS           CLOUDY    36  16  44 SW16      29.92F WCI  26
ANGEL FIRE     FLURRIES  32  20  62 W12G29    29.91R WCI  23

$$
NMZ402-403-502-505>509-271800-
WESTCENTRAL MOUNTAINS/SOUTHWEST MOUNTAINS

CITY           SKY/WX    TMP DP  RH WIND       PRES   REMARKS
GALLUP         CLOUDY    37  23  56 SW18G29   29.95R WCI  27
GRANTS         FAIR      41  23  48 CALM      29.96S
SILVER CITY    FAIR      49  26  40 W17       30.06R

$$
NMZ407-409-411-412-271800-
SOUTHERN DESERTS

CITY           SKY/WX    TMP DP  RH WIND       PRES   REMARKS
DEMING         FAIR      54  28  36 W21       30.04R
LAS CRUCES     FAIR      53  26  34 W8G16     30.06R
HOLLOMAN AFB   FAIR      58  20  23 S14       30.06R
ALAMOGORDO     FAIR      57  21  24 S10G17    30.05R
T OR C         FAIR      50  24  36 S10       29.98R

$$
NMZ519>523-271800-
CENTRAL VALLEYS/CENTRAL HIGHLANDS

CITY           SKY/WX    TMP DP  RH WIND       PRES   REMARKS
ALBUQUERQUE    PTSUNNY   44  24  45 S13       29.97S
DOUBLE EAGLE   PTSUNNY   45  25  45 S12G17    29.96S
MORIARTY ARPT  FAIR      50  21  31 SW17G23   29.95F
CLINES CORNERS FAIR      42  20  41 SW30      29.94R
BELEN          FAIR      47  24  40 S10       29.97F
SOCORRO        FAIR      46  24  42 CALM      29.98S

$$
NMZ524>526-539-540-271800-
SOUTHCENTRAL MOUNTAINS

CITY           SKY/WX    TMP DP  RH WIND       PRES   REMARKS
RUIDOSO        NOT AVBL

$$
NMZ527>531-271800-
NORTHEAST HIGHLANDS/NORTHEAST PLAINS

CITY           SKY/WX    TMP DP  RH WIND       PRES   REMARKS
LAS VEGAS      FAIR      44  18  35 W28G36    29.87S
RATON          NOT AVBL
CLAYTON        FAIR      51  24  34 SW16G24   29.80F

$$
NMZ532>537-271800-
EASTCENTRAL PLAINS

CITY           SKY/WX    TMP DP  RH WIND       PRES   REMARKS
TUCUMCARI      FAIR      59  23  25 W23       29.86F
CANNON AFB     SUNNY     56  24  28 SW16      29.90F
CLOVIS AIRPORT FAIR      55  27  33 SW13      29.91S

$$
NMZ028-029-538-271800-
SOUTHEAST PLAINS

CITY           SKY/WX    TMP DP  RH WIND       PRES   REMARKS
ROSWELL        FAIR      53  25  33 SE6       29.94F
ARTESIA        FAIR      64  23  20 SW29G39   29.93F
CARLSBAD       FAIR      64  23  21 VRB3      29.94S
HOBBS          SUNNY     64  21  19 SW15G23   29.96S


$$




USA.gov is the U.S. government's official web portal to all federal, state and local government web resources and services.